Location: Proctor
(47.8934°N, 114.3048°W)
Time: 17:26:39
(UTC+00:00)

Courier 1B Rocket - Pass Details

Date: 15 June 2024
Orbit: 920 x 1201 km, 28.2° (Epoch: 16 July)

Event Time Altitude Azimuth Distance (km) Brightness Sun altitude
Rises 16:12:20 0° 244° (WSW) 4,045 7.9 42.7°
Reaches altitude 10° 16:16:44 10° 221° (SW) 3,112 7.5 43.4°
Maximum altitude 16:20:30 14° 192° (SSW) 2,808 7.6 44.0°
Drops below altitude 10° 16:24:16 10° 163° (SSE) 3,125 8.1 44.6°
Sets 16:28:43 0° 140° (SE) 4,075 8.8 45.4°
